#timestamp,LO_Frequency,Hit,StdDev 
1675047615.3,286047003.7,N
1675047635.1,286047003.8,N
1675047655.9,286046999.9,N
1675047675.7,286047002.4,N
1675047695.6,286047001.8,N
1675047715.4,286047001.8,N
1675047735.2,286047002.0,N
1675047755.1,286047004.2,N
1675047756.0,286047004.2,N
1675047775.8,286047003.8,N
1675047795.7,286047004.1,N
1675047815.5,286047003.1,N
1675047835.3,286047002.9,N
1675047855.2,286047004.2,N
1675047875.0,286047001.9,N
1675047875.9,286047001.9,N
1675047895.7,286047002.3,N
1675047915.6,286047002.4,N
1675047935.4,286047002.7,N
1675047955.3,286046998.2,N
1675047975.1,286047000.7,N
1675047995.8,286047001.2,N
1675048015.7,286047000.5,N
1675048035.5,286047001.1,N
1675048055.4,286047002.5,N
1675048075.2,286047000.9,N
1675048095.0,286047000.8,N
1675048095.9,286047000.8,N
1675048115.8,286047000.3,N
1675048135.6,286046999.7,N
1675048155.4,286047001.9,N
1675048175.3,286047002.9,N
1675048195.1,286047003.0,N
1675048215.9,286047006.0,Y
1675048235.7,286047003.0,P
1675048255.5,286047003.0,P
1675048275.4,286047005.7,P
1675048295.2,286047001.7,N
1675048315.1,286047002.0,N
1675048316.0,286047002.0,N
1675048335.8,286046999.7,N
1675048355.6,286047001.6,N
1675048375.5,286047001.5,N
1675048395.3,286047001.4,N
1675048415.1,286047004.3,Y
1675048435.9,286046998.7,P
1675048455.7,286046998.4,N
1675048475.6,286046998.3,N
1675048495.4,286046997.6,N
1675048515.2,286046991.8,Y
1675048535.1,286046995.2,P
1675048536.0,286046995.2,N
1675048555.8,286046996.1,N
1675048575.7,286046998.0,N
1675048595.5,286046996.7,N
1675048645.4,286046999.4,E
1675048655.3,286046998.6,N
1675048675.1,286046999.7,P
1675048695.9,286047001.8,P
1675048715.7,286046999.9,N
1675048735.5,286046999.8,N
1675048755.4,286047000.0,N
1675048775.2,286046998.5,N
1675048795.0,286047002.6,N
1675048795.9,286047002.6,N
1675048815.8,286047002.3,N
1675048835.6,286046999.8,N
1675048855.5,286047002.8,N
1675048875.3,286047000.1,N
1675048895.1,286047000.6,N
1675048915.9,286047001.6,N
1675048935.7,286047001.2,N
1675048955.5,286046996.9,N
1675048975.4,286046998.3,N
1675048995.2,286046997.0,N
1675049015.1,286046995.5,N
1675049016.0,286046995.5,N
1675049035.8,286046995.9,N
1675049055.6,286046995.3,N
1675049075.5,286046996.7,N
1675049095.3,286046998.3,N
1675049115.1,286046998.3,N
1675049135.9,286047001.2,N
1675049155.7,286046998.6,N
1675049175.6,286046998.5,N
1675049195.4,286047001.0,N
1675049215.2,286046998.7,N
1675049235.1,286046999.0,N
1675049236.0,286046999.0,N
1675049255.8,286046996.7,N
1675049275.7,286046998.6,N
1675049295.5,286046999.5,N
1675049315.3,286046999.6,N
1675049335.2,286046996.9,N
1675049355.0,286046998.2,N
1675049355.9,286046998.2,N
1675049375.8,286047000.6,N
1675049395.6,286046998.4,N
1675049415.4,286046998.4,N
1675049435.3,286047000.9,N
1675049455.1,286047002.6,N
1675049475.8,286047000.0,N
1675049495.7,286047000.6,N
1675049515.5,286047000.1,N
1675049535.4,286046998.4,N
1675049555.2,286046998.5,N
1675049575.0,286046999.8,N
1675049575.9,286046999.8,N
1675049595.8,286046998.5,N
1675049615.6,286046998.7,N
1675049635.5,286046998.1,N
1675049655.3,286047001.0,N
1675049675.1,286047000.4,N
1675049695.9,286047003.1,N
1675049715.7,286047002.7,N
1675049735.5,286046998.7,N
1675049755.4,286047002.8,N
1675049775.2,286047000.1,N
1675049795.1,286046999.7,N
1675049796.0,286046999.7,N
1675049815.8,286047000.8,N
1675049835.6,286047001.1,N
1675049855.5,286047002.4,N
1675049875.3,286047000.4,N
1675049895.1,286046998.1,N
1675049915.9,286046998.5,N
1675049935.7,286047000.0,N
1675049955.5,286046998.1,N
1675049975.4,286047000.9,N
1675049995.2,286047000.3,N
1675050015.0,286047002.0,N
1675050016.0,286047002.0,N
1675050035.8,286047002.3,N
1675050055.6,286047002.2,N
1675050075.5,286047002.0,N
1675050095.3,286046999.8,N
1675050115.1,286047000.1,N
1675050135.9,286047000.5,N
1675050155.7,286047002.3,N
1675050175.6,286047002.4,N
1675050195.4,286047001.1,N
1675050215.2,286046999.4,N
1675050235.1,286046997.7,N
1675050236.0,286046997.7,N
1675050255.8,286047001.2,N
1675050275.6,286047000.9,N
1675050295.5,286047002.2,N
1675050315.3,286047001.1,N
1675050335.2,286046999.0,N
1675050355.9,286047001.1,N
1675050375.7,286046998.7,N
1675050395.6,286046999.3,N
1675050415.4,286046997.8,N
1675050435.3,286046999.0,N
1675050455.1,286046997.0,N
1675050456.0,286046997.0,N
1675050475.8,286046998.3,N
1675050495.7,286046998.8,N
1675050515.5,286046998.4,N
1675050535.3,286047000.8,N
1675050555.2,286046998.4,N
1675050575.0,286046999.3,N
1675050575.9,286046999.3,N
1675050595.8,286047001.2,N
1675050615.6,286046999.0,N
1675050635.4,286046997.8,N
1675050655.3,286046996.0,N
1675050675.1,286046996.8,N
1675050695.9,286046999.6,N
1675050715.7,286046998.8,N
1675050735.5,286047001.0,N
1675050755.4,286047002.7,N
1675050775.2,286047002.1,N
1675050795.0,286047001.9,N
1675050795.9,286047001.9,N
1675050815.8,286047002.5,N
1675050835.6,286047000.6,N
1675050855.5,286047003.4,N
1675050875.3,286047003.2,N
1675050895.1,286047003.9,N
1675050915.9,286047001.9,N
1675050935.7,286047001.3,N
1675050955.5,286047003.9,N
1675050975.4,286047001.3,N
1675050995.2,286047003.4,N
1675051015.1,286047003.8,N
1675051016.0,286047003.8,N
1675051035.8,286047005.5,N
1675051055.6,286047005.7,N
1675051075.5,286047003.0,N
1675051095.3,286047003.7,N
1675051115.1,286047003.0,N
1675051135.9,286047001.3,N
1675051155.7,286047004.2,N
1675051175.6,286047001.6,N
1675051195.4,286047001.5,N
